"SCET";"TARGET";"ELECTRON_DENSITY";"ERROR_FLAG";"ELECTRON_DENSITY_ERROR";"FREQ_FCE";"MEASURED_VALUE";"MEASURED_ITEM";"FREQ_PLASMA";"FREQ_UPPER_HYBRID";"FREQ_R_EQUALS_ZERO";"FREQ_L_EQUALS_ZERO";"ORBIT_NUMBER";"SATURN_RADIUS";"SATURN_IAU_LONGITUDE";"SATURN_SLS4_S_LONGITUDE";"SATURN_SLS4_N_LONGITUDE";"SATURN_SLS5_S_LONGITUDE";"SATURN_SLS5_N_LONGITUDE";"SATURN_LOCAL_TIME";"SATURN_KRONOGRAPHIC_LATITUDE";"SATURN_MAGNETIC_LATITUDE";"SATURN_L";"SATURN_L_OFFSET";"SATURN_SOLAR_EQUATORIAL_X";"SATURN_SOLAR_EQUATORIAL_Y";"SATURN_SOLAR_EQUATORIAL_Z";"SATURN_ALTITUDE";"ENCELADUS_ENCOUNTER_NUMBER";"ENCELADUS_RADIUS";"ENCELADUS_COROTATIONAL_X";"ENCELADUS_COROTATIONAL_Y";"ENCELADUS_COROTATIONAL_Z";"ENCELADUS_TRUE_ANOMALY";"ENCELADUS_PERIAPSIS_TIME";"JUPITER_RADIUS";"JUPITER_SYSTEMIII_LONGITUDE";"JUPITER_MAGNETIC_LATITUDE";"JUPITER_MAGNETIC_LOCAL_TIME";"JUPITER_L";"IO_PHASE";"EARTH_RADIUS";"EARTH_MAGNETIC_LATITUDE";"EARTH_LOCAL_TIME";"EARTH_L"
"[UTC]";"[0=Saturn, 1=Enceladus, 2=Jupiter, 3=Earth]";"[cm-3]";"[0=automated, 1=manual]";"[normalized density error]";"[Hz]";"[Hz]";"[0=upper hybrid frequency, 1=plasma frequency cutoff]";"[Hz]";"[Hz]";"[Hz]";"[Hz}";"[0, A, B, C, 3, 4, ... , 292, 293]";"[Rs where 1Rs=60268km]";"[degrees]";"[degrees]";"[degrees]";"[degrees]";"[degrees]";"[hours]";"[degrees]";"[degrees where offset=2293km north]";"[Rs where 1Rs=60268km]";"[Rs where 1Rs=60268km and offset=2293km north]";"[Rs where 1Rs=60268km]";"[Rs where 1Rs=60268km]";"[Rs where 1Rs=60268km]";"[km where ellipsoid a,b=60268km and c=54364km]";"[E0, E1, E2, ... , E21, E22]";"[Renc where 1Renc=252.1km]";"[Renc where 1Renc=252.1km]";"[Renc where 1Renc=252.1km]";"[Renc where 1Renc=252.1km]";"[degrees]";"[UTC]";"[Rj where 1Rj=71492km]";"[degrees]";"[degrees using JRM09 model]";"[hours using JRM09 model]";"[Rj where 1Rj=71492km]";"[degrees]";"[Re where 1Re=6378.1366km]";"[degrees]";"[hours]";"[Re where 1Re=6378.1366km]"
1999-08-18T02:36:40.601Z;3;2.1360e+00;1;     1.502;  1940.176;  13123.671; 1;  13123.671;  13266.312;  14129.564;  12189.388;;;;;;;;;;;;;;;;;;;;;;;;;;;;;;   8.274;   2.316;  13.094;   8.288
1999-08-18T02:36:47.238Z;3;1.9400e+00;1;     1.171;  1941.352;  12508.992; 1;  12508.992;  12658.741;  13517.273;  11575.921;;;;;;;;;;;;;;;;;;;;;;;;;;;;;;   8.257;   2.306;  13.095;   8.271
1999-08-18T02:36:53.851Z;3;1.5510e+00;1;     1.192;  1942.528;  11184.360; 1;  11184.360;  11351.799;  12197.718;  10255.190;;;;;;;;;;;;;;;;;;;;;;;;;;;;;;   8.240;   2.297;  13.096;   8.254
1999-08-18T02:37:00.488Z;3;7.4340e-01;1;     1.592;  1943.732;   7742.636; 1;   7742.636;   7982.889;   8775.259;   6831.527;;;;;;;;;;;;;;;;;;;;;;;;;;;;;;   8.223;   2.288;  13.097;   8.237
1999-08-18T02:37:07.101Z;3;2.0030e+00;1;     1.152;  1944.908;  12710.613; 1;  12710.613;  12858.552;  13720.213;  11775.305;;;;;;;;;;;;;;;;;;;;;;;;;;;;;;   8.207;   2.279;  13.099;   8.220
1999-08-18T02:37:13.738Z;3;1.7070e+00;1;     1.136;  1946.084;  11733.962; 1;  11733.962;  11894.247;  12747.279;  10801.195;;;;;;;;;;;;;;;;;;;;;;;;;;;;;;   8.190;   2.270;  13.100;   8.203
1999-08-18T02:37:20.351Z;3;2.6720e+00;1;     1.096;  1947.260;  14677.987; 1;  14677.987;  14806.591;  15683.874;  13736.613;;;;;;;;;;;;;;;;;;;;;;;;;;;;;;   8.173;   2.260;  13.101;   8.186
1999-08-18T02:37:26.976Z;3;2.0690e+00;1;     1.526;  1948.464;  12915.498; 1;  12915.498;  13061.646;  13926.422;  11977.958;;;;;;;;;;;;;;;;;;;;;;;;;;;;;;   8.156;   2.251;  13.102;   8.169
1999-08-18T02:37:33.601Z;3;1.6540e+00;1;     1.154;  1949.696;  11547.820; 1;  11547.820;  11711.254;  12563.743;  10614.047;;;;;;;;;;;;;;;;;;;;;;;;;;;;;;   8.139;   2.242;  13.104;   8.152
1999-08-18T02:37:40.238Z;3;9.9130e-01;1;     1.514;  1951.012;   8941.057; 1;   8941.057;   9151.444;   9969.621;   8018.609;;;;;;;;;;;;;;;;;;;;;;;;;;;;;;   8.122;   2.232;  13.105;   8.135
1999-08-18T02:37:46.851Z;3;1.8200e+00;1;     1.100;  1952.328;  12115.281; 1;  12115.281;  12271.578;  13130.708;  11178.380;;;;;;;;;;;;;;;;;;;;;;;;;;;;;;   8.105;   2.223;  13.106;   8.118
1999-08-18T02:37:53.488Z;3;2.0690e+00;1;     1.133;  1953.644;  12915.498; 1;  12915.498;  13062.420;  13929.207;  11975.562;;;;;;;;;;;;;;;;;;;;;;;;;;;;;;   8.088;   2.214;  13.108;   8.101
1999-08-18T02:38:00.101Z;3;2.0690e+00;1;     1.133;  1954.960;  12915.498; 1;  12915.498;  13062.617;  13929.914;  11974.954;;;;;;;;;;;;;;;;;;;;;;;;;;;;;;   8.072;   2.204;  13.109;   8.084
1999-08-18T02:38:06.737Z;3;1.9400e+00;1;     1.171;  1956.276;  12508.992; 1;  12508.992;  12661.039;  13525.314;  11569.039;;;;;;;;;;;;;;;;;;;;;;;;;;;;;;   8.055;   2.195;  13.110;   8.066
1999-08-18T02:38:13.351Z;3;1.4090e+00;1;     1.138;  1957.564;  10660.502; 1;  10660.502;  10838.743;  11684.123;   9726.559;;;;;;;;;;;;;;;;;;;;;;;;;;;;;;   8.038;   2.185;  13.111;   8.050
1999-08-18T02:38:19.987Z;3;1.1270e+00;1;     1.560;  1958.880;   9531.620; 1;   9531.620;   9730.827;  10561.250;   8602.370;;;;;;;;;;;;;;;;;;;;;;;;;;;;;;   8.021;   2.176;  13.113;   8.032
1999-08-18T02:38:26.601Z;3;2.0690e+00;1;     1.133;  1960.196;  12915.498; 1;  12915.498;  13063.401;  13932.730;  11972.534;;;;;;;;;;;;;;;;;;;;;;;;;;;;;;   8.004;   2.166;  13.114;   8.016
1999-08-18T02:38:33.237Z;3;2.2770e+00;1;     1.599;  1962.912;  13550.167; 1;  13550.167;  13691.605;  14567.120;  12604.209;;;;;;;;;;;;;;;;;;;;;;;;;;;;;;   7.987;   2.157;  13.115;   7.998
1999-08-18T02:38:39.850Z;3;2.0690e+00;1;     1.133;  1967.112;  12915.498; 1;  12915.498;  13064.441;  13936.450;  11969.339;;;;;;;;;;;;;;;;;;;;;;;;;;;;;;   7.970;   2.147;  13.117;   7.982
1999-08-18T02:38:46.475Z;3;2.1360e+00;1;     1.115;  1971.312;  13123.671; 1;  13123.671;  13270.900;  14146.289;  12174.977;;;;;;;;;;;;;;;;;;;;;;;;;;;;;;   7.953;   2.138;  13.118;   7.964
1999-08-18T02:38:53.112Z;3;2.5880e+00;1;     1.113;  1975.512;  14445.159; 1;  14445.159;  14579.618;  15466.647;  13491.135;;;;;;;;;;;;;;;;;;;;;;;;;;;;;;   7.937;   2.128;  13.119;   7.947
1999-08-18T02:38:59.737Z;3;2.5880e+00;1;     0.737;  1979.740;  14445.159; 1;  14445.159;  14580.191;  15468.905;  13489.165;;;;;;;;;;;;;;;;;;;;;;;;;;;;;;   7.920;   2.118;  13.121;   7.930
1999-08-18T02:39:06.362Z;3;1.8790e+00;1;     1.602;  1983.940;  12310.556; 1;  12310.556;  12469.395;  13342.427;  11358.487;;;;;;;;;;;;;;;;;;;;;;;;;;;;;;   7.903;   2.109;  13.122;   7.913
1999-08-18T02:39:12.975Z;3;1.7070e+00;1;     1.530;  1988.112;  11733.962; 1;  11733.962;  11901.195;  12770.049;  10781.937;;;;;;;;;;;;;;;;;;;;;;;;;;;;;;   7.886;   2.099;  13.123;   7.896
1999-08-18T02:39:19.612Z;3;2.3510e+00;1;     1.168;  1992.340;  13768.570; 1;  13768.570;  13911.972;  14800.730;  12808.391;;;;;;;;;;;;;;;;;;;;;;;;;;;;;;   7.869;   2.089;  13.125;   7.879
1999-08-18T02:39:26.225Z;3;2.2770e+00;1;     1.187;  1996.512;  13550.167; 1;  13550.167;  13696.463;  14585.145;  12588.633;;;;;;;;;;;;;;;;;;;;;;;;;;;;;;   7.852;   2.080;  13.126;   7.862
1999-08-18T02:39:32.862Z;3;2.2050e+00;1;     1.098;  2001.412;  13335.214; 1;  13335.214;  13484.568;  14373.415;  12372.003;;;;;;;;;;;;;;;;;;;;;;;;;;;;;;   7.835;   2.070;  13.128;   7.845
1999-08-18T02:39:39.475Z;3;2.5880e+00;1;     0.737;  2007.180;  14445.159; 1;  14445.159;  14583.943;  15483.569;  13476.390;;;;;;;;;;;;;;;;;;;;;;;;;;;;;;   7.818;   2.060;  13.129;   7.828
1999-08-18T02:39:46.100Z;3;2.3510e+00;1;     1.168;  2012.976;  13768.570; 1;  13768.570;  13914.941;  14811.797;  12798.820;;;;;;;;;;;;;;;;;;;;;;;;;;;;;;   7.802;   2.050;  13.130;   7.811
1999-08-18T02:39:52.725Z;3;2.9410e+00;1;     0.759;  2018.772;  15399.266; 1;  15399.266;  15531.027;  16441.697;  14422.926;;;;;;;;;;;;;;;;;;;;;;;;;;;;;;   7.785;   2.040;  13.132;   7.795
1999-08-18T02:39:59.362Z;3;2.8480e+00;1;     0.772;  2024.568;  15154.979; 1;  15154.979;  15289.612;  16201.033;  14176.465;;;;;;;;;;;;;;;;;;;;;;;;;;;;;;   7.768;   2.030;  13.133;   7.777
1999-08-18T02:40:05.975Z;3;3.0360e+00;1;     0.747;  2030.336;  15647.489; 1;  15647.489;  15778.662;  16695.553;  14665.218;;;;;;;;;;;;;;;;;;;;;;;;;;;;;;   7.751;   2.021;  13.135;   7.761
1999-08-18T02:40:12.612Z;3;2.9410e+00;1;     0.759;  2036.132;  15399.266; 1;  15399.266;  15533.294;  16450.947;  14414.815;;;;;;;;;;;;;;;;;;;;;;;;;;;;;;   7.734;   2.011;  13.136;   7.743
1999-08-18T02:40:19.225Z;3;2.9410e+00;1;     0.759;  2041.900;  15399.266; 1;  15399.266;  15534.051;  16454.021;  14412.122;;;;;;;;;;;;;;;;;;;;;;;;;;;;;;   7.717;   2.001;  13.137;   7.727
1999-08-18T02:40:25.862Z;3;2.5060e+00;1;     1.131;  2047.696;  14216.009; 1;  14216.009;  14362.729;  15276.679;  13228.982;;;;;;;;;;;;;;;;;;;;;;;;;;;;;;   7.700;   1.991;  13.139;   7.709
1999-08-18T02:40:32.486Z;3;3.1350e+00;1;     1.111;  2055.788;  15899.696; 1;  15899.696;  16032.050;  16960.781;  14904.994;;;;;;;;;;;;;;;;;;;;;;;;;;;;;;   7.683;   1.981;  13.140;   7.693
1999-08-18T02:40:39.111Z;3;3.1350e+00;1;     1.111;  2067.716;  15899.696; 1;  15899.696;  16033.583;  16967.131;  14899.415;;;;;;;;;;;;;;;;;;;;;;;;;;;;;;   7.666;   1.971;  13.142;   7.676
1999-08-18T02:40:45.725Z;3;3.1350e+00;1;     1.111;  2079.616;  15899.696; 1;  15899.696;  16035.122;  16973.469;  14893.853;;;;;;;;;;;;;;;;;;;;;;;;;;;;;;   7.650;   1.961;  13.143;   7.659
1999-08-18T02:40:52.361Z;3;3.0360e+00;1;     0.747;  2091.544;  15647.489; 1;  15647.489;  15786.655;  16728.168;  14636.624;;;;;;;;;;;;;;;;;;;;;;;;;;;;;;   7.633;   1.950;  13.145;   7.642
1999-08-18T02:40:58.986Z;3;3.0360e+00;1;     0.747;  2103.472;  15647.489; 1;  15647.489;  15788.240;  16734.531;  14631.060;;;;;;;;;;;;;;;;;;;;;;;;;;;;;;   7.616;   1.940;  13.146;   7.625
1999-08-18T02:41:05.600Z;3;3.6780e+00;1;     1.127;  2115.372;  17223.094; 1;  17223.094;  17352.514;  18313.227;  16197.854;;;;;;;;;;;;;;;;;;;;;;;;;;;;;;   7.599;   1.930;  13.148;   7.608
1999-08-18T02:41:12.224Z;3;3.1350e+00;1;     1.111;  2127.300;  15899.696; 1;  15899.696;  16041.376;  16998.885;  14871.584;;;;;;;;;;;;;;;;;;;;;;;;;;;;;;   7.582;   1.920;  13.149;   7.591
1999-08-18T02:41:18.849Z;3;3.1350e+00;1;     1.111;  2139.228;  15899.696; 1;  15899.696;  16042.962;  17005.248;  14866.020;;;;;;;;;;;;;;;;;;;;;;;;;;;;;;   7.565;   1.910;  13.150;   7.574
1999-08-18T02:41:25.486Z;3;3.6780e+00;1;     0.746;  2151.184;  17223.094; 1;  17223.094;  17356.916;  18332.238;  16181.055;;;;;;;;;;;;;;;;;;;;;;;;;;;;;;   7.548;   1.899;  13.152;   7.557
1999-08-18T02:41:32.099Z;3;3.6780e+00;1;     0.746;  2162.468;  17223.094; 1;  17223.094;  17358.318;  18338.232;  16175.766;;;;;;;;;;;;;;;;;;;;;;;;;;;;;;   7.531;   1.889;  13.153;   7.540
1999-08-18T02:41:38.736Z;3;3.6780e+00;1;     1.518;  2172.436;  17223.094; 1;  17223.094;  17359.562;  18343.529;  16171.095;;;;;;;;;;;;;;;;;;;;;;;;;;;;;;   7.515;   1.879;  13.155;   7.523
1999-08-18T02:41:45.361Z;3;3.6780e+00;1;     0.746;  2182.376;  17223.094; 1;  17223.094;  17360.811;  18348.814;  16166.438;;;;;;;;;;;;;;;;;;;;;;;;;;;;;;   7.498;   1.869;  13.156;   7.506
1999-08-18T02:41:51.986Z;3;3.1350e+00;1;     0.735;  2192.344;  15899.696; 1;  15899.696;  16050.131;  17033.609;  14841.267;;;;;;;;;;;;;;;;;;;;;;;;;;;;;;   7.481;   1.858;  13.158;   7.489
1999-08-18T02:41:58.599Z;3;3.1350e+00;1;     1.111;  2202.284;  15899.696; 1;  15899.696;  16051.492;  17038.922;  14836.639;;;;;;;;;;;;;;;;;;;;;;;;;;;;;;   7.464;   1.848;  13.159;   7.472
1999-08-18T02:42:05.236Z;3;3.1350e+00;1;     1.497;  2212.252;  15899.696; 1;  15899.696;  16052.862;  17044.252;  14832.000;;;;;;;;;;;;;;;;;;;;;;;;;;;;;;   7.447;   1.837;  13.161;   7.455
1999-08-18T02:42:11.849Z;3;3.6780e+00;1;     0.746;  2222.192;  17223.094; 1;  17223.094;  17365.859;  18369.992;  16147.800;;;;;;;;;;;;;;;;;;;;;;;;;;;;;;   7.430;   1.827;  13.163;   7.438
1999-08-18T02:42:18.486Z;3;3.7980e+00;1;     1.109;  2232.160;  17500.697; 1;  17500.697;  17642.475;  18652.330;  16420.170;;;;;;;;;;;;;;;;;;;;;;;;;;;;;;   7.413;   1.816;  13.164;   7.421
1999-08-18T02:42:25.099Z;3;3.3420e+00;1;     0.783;  2242.100;  16416.391; 1;  16416.391;  16568.793;  17575.674;  15333.573;;;;;;;;;;;;;;;;;;;;;;;;;;;;;;   7.396;   1.806;  13.166;   7.404
1999-08-18T02:42:31.736Z;3;2.9410e+00;1;     0.759;  2251.732;  15399.266; 1;  15399.266;  15563.022;  16566.234;  14314.502;;;;;;;;;;;;;;;;;;;;;;;;;;;;;;   7.380;   1.795;  13.167;   7.387
1999-08-18T02:42:38.349Z;3;2.5880e+00;1;     1.500;  2260.328;  14445.159; 1;  14445.159;  14620.934;  15619.467;  13359.139;;;;;;;;;;;;;;;;;;;;;;;;;;;;;;   7.363;   1.785;  13.169;   7.370
1999-08-18T02:42:44.974Z;3;3.2370e+00;1;     0.724;  2268.952;  16155.987; 1;  16155.987;  16314.535;  17330.246;  15061.294;;;;;;;;;;;;;;;;;;;;;;;;;;;;;;   7.346;   1.774;  13.170;   7.353
1999-08-18T02:42:51.599Z;3;3.5630e+00;1;     0.758;  2277.576;  16949.875; 1;  16949.875;  17102.211;  18126.875;  15849.299;;;;;;;;;;;;;;;;;;;;;;;;;;;;;;   7.329;   1.763;  13.172;   7.336
1999-08-18T02:42:58.236Z;3;3.1350e+00;1;     0.735;  2286.200;  15899.696; 1;  15899.696;  16063.221;  17083.834;  14797.635;;;;;;;;;;;;;;;;;;;;;;;;;;;;;;   7.312;   1.753;  13.173;   7.319
1999-08-18T02:43:04.860Z;3;3.7980e+00;1;     1.109;  2294.824;  17500.697; 1;  17500.697;  17650.514;  18685.684;  16390.859;;;;;;;;;;;;;;;;;;;;;;;;;;;;;;   7.295;   1.742;  13.175;   7.302
1999-08-18T02:43:11.474Z;3;3.6780e+00;1;     1.127;  2303.420;  17223.094; 1;  17223.094;  17376.441;  18413.268;  16109.849;;;;;;;;;;;;;;;;;;;;;;;;;;;;;;   7.278;   1.731;  13.177;   7.285
1999-08-18T02:43:18.099Z;3;3.6780e+00;1;     0.746;  2312.044;  17223.094; 1;  17223.094;  17377.586;  18417.869;  16105.824;;;;;;;;;;;;;;;;;;;;;;;;;;;;;;   7.261;   1.720;  13.178;   7.268
1999-08-18T02:43:24.735Z;3;3.6780e+00;1;     0.746;  2320.668;  17223.094; 1;  17223.094;  17378.736;  18422.471;  16101.802;;;;;;;;;;;;;;;;;;;;;;;;;;;;;;   7.245;   1.709;  13.180;   7.251
1999-08-18T02:43:31.349Z;3;2.7580e+00;1;     1.185;  2329.180;  14914.585; 1;  14914.585;  15095.361;  16124.574;  13795.394;;;;;;;;;;;;;;;;;;;;;;;;;;;;;;   7.228;   1.699;  13.182;   7.234
1999-08-18T02:43:37.974Z;3;3.5630e+00;1;     0.758;  2337.272;  16949.875; 1;  16949.875;  17110.264;  18158.750;  15821.478;;;;;;;;;;;;;;;;;;;;;;;;;;;;;;   7.211;   1.688;  13.183;   7.217
1999-08-18T02:43:44.610Z;3;3.7980e+00;1;     1.494;  2345.364;  17500.697; 1;  17500.697;  17657.156;  18712.625;  16367.261;;;;;;;;;;;;;;;;;;;;;;;;;;;;;;   7.194;   1.677;  13.185;   7.200
1999-08-18T02:43:51.235Z;3;3.5630e+00;1;     0.758;  2353.456;  16949.875; 1;  16949.875;  17112.480;  18167.400;  15813.944;;;;;;;;;;;;;;;;;;;;;;;;;;;;;;   7.177;   1.666;  13.186;   7.183
1999-08-18T02:43:57.860Z;3;3.1350e+00;1;     0.735;  2361.548;  15899.696; 1;  15899.696;  16074.117;  17124.254;  14762.706;;;;;;;;;;;;;;;;;;;;;;;;;;;;;;   7.160;   1.655;  13.188;   7.166
1999-08-18T02:44:04.473Z;3;4.6010e+00;1;     1.107;  2369.612;  19262.930; 1;  19262.930;  19408.131;  20484.139;  18114.525;;;;;;;;;;;;;;;;;;;;;;;;;;;;;;   7.143;   1.644;  13.190;   7.149
1999-08-18T02:44:11.110Z;3;3.6780e+00;1;     1.127;  2377.704;  17223.094; 1;  17223.094;  17386.443;  18452.928;  16075.225;;;;;;;;;;;;;;;;;;;;;;;;;;;;;;   7.126;   1.633;  13.191;   7.132
1999-08-18T02:44:17.723Z;3;4.6010e+00;1;     1.491;  2385.796;  19262.930; 1;  19262.930;  19410.113;  20492.729;  18106.934;;;;;;;;;;;;;;;;;;;;;;;;;;;;;;   7.110;   1.622;  13.193;   7.115
1999-08-18T02:44:24.360Z;3;3.7980e+00;1;     1.109;  2393.888;  17500.697; 1;  17500.697;  17663.666;  18738.525;  16344.638;;;;;;;;;;;;;;;;;;;;;;;;;;;;;;   7.093;   1.610;  13.195;   7.098
1999-08-18T02:44:30.973Z;3;4.7510e+00;1;     1.197;  2402.596;  19573.410; 1;  19573.410;  19720.316;  20811.537;  18408.941;;;;;;;;;;;;;;;;;;;;;;;;;;;;;;   7.076;   1.599;  13.196;   7.081
1999-08-18T02:44:37.610Z;3;3.9210e+00;1;     1.092;  2415.112;  17782.795; 1;  17782.795;  17946.045;  19031.305;  16616.191;;;;;;;;;;;;;;;;;;;;;;;;;;;;;;   7.059;   1.588;  13.198;   7.064
1999-08-18T02:44:44.223Z;3;3.9210e+00;1;     1.092;  2427.544;  17782.795; 1;  17782.795;  17947.723;  19037.941;  16610.398;;;;;;;;;;;;;;;;;;;;;;;;;;;;;;   7.042;   1.577;  13.200;   7.047
1999-08-18T02:44:50.860Z;3;3.7980e+00;1;     1.109;  2440.032;  17500.697; 1;  17500.697;  17669.979;  18763.188;  16323.155;;;;;;;;;;;;;;;;;;;;;;;;;;;;;;   7.025;   1.565;  13.202;   7.030
1999-08-18T02:44:57.473Z;3;4.7510e+00;1;     0.792;  2452.492;  19573.410; 1;  19573.410;  19726.457;  20838.029;  18385.537;;;;;;;;;;;;;;;;;;;;;;;;;;;;;;   7.008;   1.554;  13.203;   7.013
1999-08-18T02:45:04.110Z;3;3.6780e+00;1;     1.127;  2464.980;  17223.094; 1;  17223.094;  17398.594;  18499.627;  16034.646;;;;;;;;;;;;;;;;;;;;;;;;;;;;;;   6.991;   1.543;  13.205;   6.996
1999-08-18T02:45:10.735Z;3;4.6010e+00;1;     1.107;  2477.440;  19262.930; 1;  19262.930;  19421.590;  20541.438;  18063.996;;;;;;;;;;;;;;;;;;;;;;;;;;;;;;   6.975;   1.531;  13.207;   6.979
1999-08-18T02:45:17.360Z;3;3.3420e+00;1;     1.182;  2489.900;  16416.391; 1;  16416.391;  16604.141;  17708.479;  15218.579;;;;;;;;;;;;;;;;;;;;;;;;;;;;;;   6.958;   1.520;  13.209;   6.963
1999-08-18T02:45:23.973Z;3;3.7980e+00;1;     1.109;  2502.360;  17500.697; 1;  17500.697;  17678.693;  18796.545;  16294.186;;;;;;;;;;;;;;;;;;;;;;;;;;;;;;   6.941;   1.508;  13.210;   6.946
1999-08-18T02:45:30.610Z;3;3.2370e+00;1;     1.094;  2514.792;  16155.987; 1;  16155.987;  16350.538;  17462.240;  14947.448;;;;;;;;;;;;;;;;;;;;;;;;;;;;;;   6.924;   1.497;  13.212;   6.929
1999-08-18T02:45:37.223Z;3;3.7980e+00;1;     1.109;  2526.608;  17500.697; 1;  17500.697;  17682.143;  18809.539;  16282.931;;;;;;;;;;;;;;;;;;;;;;;;;;;;;;   6.907;   1.485;  13.214;   6.912
1999-08-18T02:45:43.848Z;3;3.9210e+00;1;     1.470;  2538.424;  17782.795; 1;  17782.795;  17963.057;  19097.242;  16558.818;;;;;;;;;;;;;;;;;;;;;;;;;;;;;;   6.890;   1.474;  13.216;   6.895
1999-08-18T02:45:50.484Z;3;4.9050e+00;1;     1.587;  2550.296;  19888.918; 1;  19888.918;  20051.760;  21204.900;  18654.605;;;;;;;;;;;;;;;;;;;;;;;;;;;;;;   6.873;   1.462;  13.217;   6.878
1999-08-18T02:45:57.109Z;3;4.3160e+00;1;     1.143;  2562.112;  18656.643; 1;  18656.643;  18831.748;  19981.629;  17419.518;;;;;;;;;;;;;;;;;;;;;;;;;;;;;;   6.856;   1.450;  13.219;   6.861
1999-08-18T02:46:03.734Z;3;5.7560e+00;1;     1.609;  2573.956;  21544.355; 1;  21544.355;  21697.568;  22869.738;  20295.783;;;;;;;;;;;;;;;;;;;;;;;;;;;;;;   6.840;   1.438;  13.221;   6.844
1999-08-18T02:46:10.348Z;3;4.7510e+00;1;     1.612;  2585.772;  19573.410; 1;  19573.410;  19743.471;  20908.949;  18323.178;;;;;;;;;;;;;;;;;;;;;;;;;;;;;;   6.823;   1.427;  13.223;   6.827
1999-08-18T02:46:16.984Z;3;5.7560e+00;1;     1.609;  2597.616;  21544.355; 1;  21544.355;  21700.389;  22882.277;  20284.662;;;;;;;;;;;;;;;;;;;;;;;;;;;;;;   6.806;   1.415;  13.225;   6.810
1999-08-18T02:46:23.597Z;3;4.9050e+00;1;     1.587;  2609.432;  19888.918; 1;  19888.918;  20059.367;  21236.383;  18626.951;;;;;;;;;;;;;;;;;;;;;;;;;;;;;;   6.789;   1.403;  13.226;   6.793
1999-08-18T02:46:30.234Z;3;5.7560e+00;1;     1.609;  2621.416;  21544.355; 1;  21544.355;  21703.250;  22894.896;  20273.480;;;;;;;;;;;;;;;;;;;;;;;;;;;;;;   6.772;   1.391;  13.228;   6.776
1999-08-18T02:46:36.847Z;3;3.4510e+00;1;     1.567;  2637.628;  16681.010; 1;  16681.010;  16888.256;  18051.875;  15414.248;;;;;;;;;;;;;;;;;;;;;;;;;;;;;;   6.755;   1.379;  13.230;   6.759
1999-08-18T02:46:43.484Z;3;3.6780e+00;1;     1.127;  2653.924;  17223.094; 1;  17223.094;  17426.367;  18601.098;  15947.175;;;;;;;;;;;;;;;;;;;;;;;;;;;;;;   6.738;   1.367;  13.232;   6.742
1999-08-18T02:46:50.097Z;3;4.9050e+00;1;     1.178;  2670.108;  19888.918; 1;  19888.918;  20067.350;  21268.730;  18598.621;;;;;;;;;;;;;;;;;;;;;;;;;;;;;;   6.721;   1.355;  13.234;   6.725
1999-08-18T02:46:56.734Z;3;5.3990e+00;1;     1.512;  2686.404;  20866.262; 1;  20866.262;  21038.480;  22252.650;  19566.248;;;;;;;;;;;;;;;;;;;;;;;;;;;;;;   6.705;   1.343;  13.236;   6.708
1999-08-18T02:47:03.347Z;3;4.6010e+00;1;     1.107;  2702.616;  19262.930; 1;  19262.930;  19451.596;  20661.578;  17958.961;;;;;;;;;;;;;;;;;;;;;;;;;;;;;;   6.688;   1.331;  13.238;   6.691
1999-08-18T02:47:09.984Z;3;4.4570e+00;1;     1.515;  2718.884;  18957.352; 1;  18957.352;  19151.332;  20365.475;  17646.590;;;;;;;;;;;;;;;;;;;;;;;;;;;;;;   6.671;   1.319;  13.240;   6.674
1999-08-18T02:47:16.597Z;3;3.9210e+00;1;     1.470;  2735.096;  17782.795; 1;  17782.795;  17991.902;  19202.850;  16467.754;;;;;;;;;;;;;;;;;;;;;;;;;;;;;;   6.654;   1.307;  13.242;   6.657
1999-08-18T02:47:23.234Z;3;4.4570e+00;1;     1.125;  2751.364;  18957.352; 1;  18957.352;  19155.971;  20382.883;  17631.520;;;;;;;;;;;;;;;;;;;;;;;;;;;;;;   6.637;   1.294;  13.243;   6.640
1999-08-18T02:47:29.847Z;3;4.6010e+00;1;     1.491;  2767.576;  19262.930; 1;  19262.930;  19460.729;  20696.357;  17928.781;;;;;;;;;;;;;;;;;;;;;;;;;;;;;;   6.620;   1.282;  13.245;   6.624
1999-08-18T02:47:36.484Z;3;4.4570e+00;1;     1.125;  2782.948;  18957.352; 1;  18957.352;  19160.531;  20399.824;  17616.877;;;;;;;;;;;;;;;;;;;;;;;;;;;;;;   6.603;   1.270;  13.247;   6.607
1999-08-18T02:47:43.097Z;3;4.4570e+00;1;     1.125;  2798.264;  18957.352; 1;  18957.352;  19162.762;  20408.045;  17609.781;;;;;;;;;;;;;;;;;;;;;;;;;;;;;;   6.587;   1.257;  13.249;   6.590
1999-08-18T02:47:49.734Z;3;4.4570e+00;1;     1.125;  2813.636;  18957.352; 1;  18957.352;  19165.014;  20416.297;  17602.662;;;;;;;;;;;;;;;;;;;;;;;;;;;;;;   6.570;   1.245;  13.251;   6.573
1999-08-18T02:47:56.347Z;3;4.3160e+00;1;     1.143;  2828.952;  18656.643; 1;  18656.643;  18869.904;  20124.662;  17295.709;;;;;;;;;;;;;;;;;;;;;;;;;;;;;;   6.553;   1.232;  13.253;   6.556
1999-08-18T02:48:02.984Z;3;4.4570e+00;1;     1.125;  2844.324;  18957.352; 1;  18957.352;  19169.543;  20432.783;  17588.459;;;;;;;;;;;;;;;;;;;;;;;;;;;;;;   6.536;   1.220;  13.255;   6.539
1999-08-18T02:48:09.597Z;3;4.4570e+00;1;     1.125;  2859.640;  18957.352; 1;  18957.352;  19171.820;  20441.016;  17581.375;;;;;;;;;;;;;;;;;;;;;;;;;;;;;;   6.519;   1.207;  13.257;   6.522
1999-08-18T02:48:16.233Z;3;3.1350e+00;1;     1.497;  2875.012;  15899.696; 1;  15899.696;  16157.538;  17402.053;  14527.041;;;;;;;;;;;;;;;;;;;;;;;;;;;;;;   6.502;   1.195;  13.259;   6.505
1999-08-18T02:48:22.858Z;3;3.1350e+00;1;     1.497;  2890.356;  15899.696; 1;  15899.696;  16160.275;  17410.418;  14520.062;;;;;;;;;;;;;;;;;;;;;;;;;;;;;;   6.485;   1.182;  13.261;   6.488
1999-08-18T02:48:29.472Z;3;2.9410e+00;1;     1.545;  2905.672;  15399.266; 1;  15399.266;  15671.002;  16920.482;  14014.812;;;;;;;;;;;;;;;;;;;;;;;;;;;;;;   6.468;   1.169;  13.263;   6.471
1999-08-18T02:48:36.097Z;3;3.4510e+00;1;     1.567;  2922.780;  16681.010; 1;  16681.010;  16935.133;  18206.293;  15283.512;;;;;;;;;;;;;;;;;;;;;;;;;;;;;;   6.452;   1.156;  13.265;   6.454
1999-08-18T02:48:42.733Z;3;3.2370e+00;1;     1.473;  2940.056;  16155.987; 1;  16155.987;  16421.322;  17692.756;  14752.700;;;;;;;;;;;;;;;;;;;;;;;;;;;;;;   6.435;   1.144;  13.267;   6.437
1999-08-18T02:48:49.346Z;3;3.2370e+00;1;     1.473;  2957.276;  16155.987; 1;  16155.987;  16424.414;  17702.148;  14744.873;;;;;;;;;;;;;;;;;;;;;;;;;;;;;;   6.418;   1.131;  13.269;   6.420
1999-08-18T02:48:55.983Z;3;3.4510e+00;1;     1.567;  2974.552;  16681.010; 1;  16681.010;  16944.145;  18234.457;  15259.905;;;;;;;;;;;;;;;;;;;;;;;;;;;;;;   6.401;   1.118;  13.271;   6.403
1999-08-18T02:49:02.608Z;3;4.4570e+00;1;     1.125;  2991.772;  18957.352; 1;  18957.352;  19191.975;  20512.164;  17520.393;;;;;;;;;;;;;;;;;;;;;;;;;;;;;;   6.384;   1.105;  13.273;   6.387
1999-08-18T02:49:09.233Z;3;3.3420e+00;1;     1.593;  3009.020;  16416.391; 1;  16416.391;  16689.879;  17989.697;  14980.679;;;;;;;;;;;;;;;;;;;;;;;;;;;;;;   6.367;   1.092;  13.276;   6.370
1999-08-18T02:49:15.846Z;3;4.7510e+00;1;     1.197;  3026.240;  19573.410; 1;  19573.410;  19805.971;  21144.930;  18118.689;;;;;;;;;;;;;;;;;;;;;;;;;;;;;;   6.350;   1.079;  13.278;   6.353